Showing default

GAOFEN 3 02, 49495

Orbit data source: Space-Track

GAOFEN 3 02, 49495 is a payload satellite owned by GWHYZ (CN) in SSO that was launched on Mon, 22 Nov 2021 UTC via a CHANG ZHENG 4C launch vehicle from the Jiuquan Satellite Launch Center, China (JSC). Payload-class satellites include a variety of spacecraft equipped with specific instruments for various scientific and technological missions. These include communications satellites like Starlink; space stations such as the ISS; scientific satellites like the Hubble; Earth observation satellites from companies like Planet Labs, Umbra, and HawkEye 360; GPS; miniature CubeSats for education and research; and military/defense satellites.

Loading next visibility...
Identifier
49495, 2021-109A
Orbit
SSO
Country
Flag of CNCN / PRC
Related business
Manufacturer
CAST
Mission
Operational Civil Radar Imaging
Bus & Motor
CS-L3000B, Unknown motor
Mass
~2,779 kg wet, ~2,500 kg dry
Launch date (UTC)
2021-11-22 (5 years ago)
Launch vehicle
CHANG ZHENG 4C
Launch site
Jiuquan Satellite Launch Center, China (JSC)
Object type
Payload
Rocket body
Debris
Shape & HBR
Box + 3 Pan, 4.0 m
Radar Cross Section
10.846 m², Large (>1 m²)

Expand to show TLE details & history
Last TLE update: 23 hours ago

TLE from 23 hours ago
0 GAOFEN 3 02
1 49495U 21109A   26172.48909596  .00000248  00000-0  88504-4 0  9995
2 49495  98.4090 180.5251 0002620   6.6784 353.4441 14.42218197240937
Epoch: 2026-06-21T11:44Z
TLE epoch observation values (Epoch: 2026-06-21T11:44:17.890Z)
Latitude
0.00004°
Longitude
94.76192°
Altitude
752.277 km
Speed
7.479 km/s
True Right ascension
12h 02m 06s
True Declination
0° 00' 00"
Sunlit
Object was in daylight at epoch
Visualization orbit readout
Latitude
Unknown
Longitude
Unknown
Altitude
Unknown
Speed
Unknown
Apparent Right ascension
Unknown
Apparent Declination
Unknown
Sunlit
N/A
Visualization observer readout
Local Sidereal Time
21:25:26
Azimuth
Unknown
Elevation
Unknown
Doppler factor
Unknown
Orbital elements
Apogee altitude
750.161 km
Perigee altitude
746.426 km
Semi-major axis
7,126.431 km
Eccentricity
0.00026
Inclination
98.409°
RAAN
180.5251°
Arg. of periapsis
6.6784°
True anomaly
353.44067°
Mean anomaly
353.4441°
Eccentric anomaly
353.44239°
Mean motion
3.60774 °/min
Orbital period
99.79 mins
BSTAR
0.000088504
Loading maneuver chart data...
Computing Atmospheric mass density...
Loading historical data...
Loading historical data...
Loading historical data...
Loading historical data...
Loading historical data...
Loading historical data...
Loading historical data...
Other satellites on launch #109 in the year 2021 (2021-11-22 UTC)

Documentation

Showing up to 5 results
|